Dewpoint
62 63 64 63 61 60 61 62 65 65 65 64 63 63 62 61 59 58 60 63 62 61 60 59 59 58 58 57 57 55 53 53
62 63 63 61 60 57 58 60 60 65 65 65 64 63 61 58 57 57 57 59 60 60 59 59 58 58 57 57 56 55 53 53
63 63 60 59 57 59 59 57 62 65 65 64 63 61 59 56 56 57 55 56 58 60 60 59 58 58 57 57 54 53 53 54
62 62 61 59 59 57 56 57 61 64 64 63 61 59 56 55 56 55 54 55 58 60 60 58 57 56 56 55 53 53 54 54
59 59 58 59 60 58 58 59 58 61 62 61 59 57 58 57 56 54 53 51 50 52 52 51 53 53 52 52 53 53 54 55
58 57 56 57 59 59 58 59 58 59 61 59 58 58 55 54 51 49 46 46 45 44 46 48 49 50 51 52 52 53 54 55
58 57 56 55 56 58 58 58 58 59 59 58 57 56 54 52 50 47 45 46 45 42 41 44 47 48 50 51 51 52 53 54
59 58 57 57 56 57 57 58 59 59 58 57 56 54 53 50 49 46 44 46 46 43 40 41 44 45 46 47 48 48 49 51
57 58 58 57 57 57 58 58 57 58 57 56 55 54 52 50 48 45 44 47 46 44 42 39 41 41 42 43 43 43 44 46
57 58 58 58 58 57 57 57 56 57 56 55 54 53 52 50 48 46 45 48 47 45 43 39 37 38 39 42 43 44 44 46
56 57 57 57 57 56 55 55 56 55 56 55 53 53 52 50 48 48 47 47 49 46 45 42 38 36 36 39 42 43 43 46
55 56 56 56 56 55 54 52 50 53 55 55 54 53 53 52 51 50 49 49 50 48 45 44 42 38 36 36 37 38 41 44
54 55 56 55 55 53 53 52 49 48 50 54 55 54 55 54 54 54 53 51 50 49 46 44 42 39 36 36 36 37 37 38
53 54 54 55 55 55 52 53 50 48 48 50 54 55 56 56 55 55 54 53 51 49 47 44 42 40 36 36 34 35 38 38
52 53 53 54 54 54 50 50 49 48 48 48 50 52 54 55 55 55 54 53 51 49 47 44 43 41 38 37 36 35 37 40
52 52 53 52 52 51 49 49 49 48 46 47 48 50 51 53 55 55 55 53 52 50 48 44 42 41 39 40 41 40 37 37
51 51 52 52 51 50 49 49 48 47 46 46 47 49 51 52 54 55 55 54 53 52 50 46 44 43 42 42 42 42 40 38
50 50 51 51 50 50 49 48 48 47 47 46 47 49 51 52 54 55 55 55 54 53 52 50 49 47 46 45 42 41 40 39
50 50 50 50 50 49 49 48 48 47 47 47 47 48 49 52 54 54 55 55 55 54 53 52 51 49 48 46 47 45 45 43
49 49 49 50 50 49 49 48 47 47 47 47 48 50 51 52 53 54 54 55 55 54 54 53 52 51 50 49 48 47 46 44
Wind_Speed
11 18 20 26 25 24 22 26 27 26 25 22 22 21 24 25 25 25 24 26 29 28 27 26 25 25 23 22 21 21 17 15
17 18 22 23 23 27 20 24 30 30 24 21 20 21 23 24 25 25 25 26 26 26 26 25 25 23 22 22 20 19 17 15
16 20 23 23 25 24 22 17 29 27 23 19 18 14 16 17 23 25 24 24 24 23 24 24 22 21 21 20 17 14 14 13
11 19 18 24 22 24 19 18 16 22 21 16 14 16 16 16 21 25 22 21 23 25 25 24 17 14 14 16 15 14 13 12
13 15 17 17 18 21 17 17 27 23 18 16 14 14 12 14 17 16 16 18 15 18 17 16 19 16 15 14 14 13 12 10
11 17 20 19 15 15 14 9 12 13 16 16 13 12 15 15 17 16 17 13 18 15 15 16 14 13 16 15 14 11 11 10
15 19 18 20 20 15 15 12 16 12 12 16 12 12 14 15 15 16 14 13 18 18 16 16 15 14 13 14 12 12 10 9
15 17 18 19 18 18 15 13 10 9 10 14 14 12 14 16 16 16 14 14 15 18 17 16 15 14 13 12 12 10 9 9
14 16 20 20 17 15 11 12 13 12 11 15 14 14 17 17 17 17 15 13 16 15 13 13 14 11 12 10 9 8 7 8
14 13 13 14 15 13 11 14 20 16 11 12 15 14 14 16 17 15 14 13 14 16 14 13 13 14 12 9 9 7 6 7
11 14 14 13 10 13 15 13 18 14 12 11 13 14 15 16 15 14 15 13 12 14 10 10 13 10 10 9 8 7 8 6
11 14 15 13 10 12 12 12 7 16 11 13 14 14 15 13 11 14 13 12 11 12 14 7 7 11 7 6 4 6 7 8
14 13 16 16 12 11 14 15 10 9 8 8 15 14 13 13 12 11 12 14 14 14 8 12 7 9 8 2 6 8 10 10
14 16 15 16 12 10 6 10 4 8 6 9 12 14 12 10 11 13 14 14 12 15 13 7 6 14 7 3 4 6 11 13
17 17 18 17 15 10 9 8 3 6 9 9 13 11 12 11 12 13 15 14 16 16 16 16 16 14 9 7 4 10 3 3
17 17 19 18 19 17 18 20 25 20 15 13 15 16 14 15 13 13 15 15 16 17 16 15 12 17 8 15 6 4 6 3
19 19 20 22 18 21 20 18 19 15 13 14 14 12 14 14 16 12 13 16 18 17 14 19 15 11 12 5 7 6 3 7
20 22 21 21 20 19 22 23 19 18 18 17 16 13 14 16 17 16 16 16 17 17 17 17 18 15 13 13 14 9 13 9
24 24 25 23 23 24 24 23 23 24 22 19 19 18 16 13 14 15 14 16 16 14 14 15 15 18 18 17 13 16 8 8
27 27 26 26 26 27 24 22 20 21 19 18 17 17 14 11 13 15 16 13 12 14 13 14 13 15 19 20 19 17 13 12
Wind_Direction
191 164 162 145 147 156 173 171 157 134 143 145 141 137 129 127 122 118 118 122 124 126 126 124 124 123 120 116 113 112 108 107
179 153 142 143 151 157 183 191 165 133 143 140 135 132 130 125 123 120 118 122 125 128 128 127 125 123 121 119 117 116 114 115
146 151 150 149 157 173 172 172 158 136 134 135 128 127 127 126 125 121 119 119 120 132 132 125 124 122 123 120 117 118 119 120
129 136 150 157 171 165 160 175 175 149 140 136 133 136 136 133 124 124 121 111 112 122 126 126 121 125 123 121 126 128 129 131
123 128 133 155 156 157 175 178 178 150 134 140 141 139 134 126 121 123 123 112 110 118 124 129 133 133 132 131 132 136 138 136
117 126 133 136 134 141 144 149 166 167 144 139 148 142 139 132 129 132 127 126 124 121 128 131 130 132 135 137 144 147 146 151
139 134 134 146 147 151 148 156 166 160 148 145 157 156 151 140 141 134 133 128 124 121 125 132 138 139 137 144 153 158 160 155
150 145 145 156 159 163 166 167 170 149 162 155 162 162 153 146 147 141 143 140 135 134 136 138 149 145 149 161 159 161 162 160
163 153 153 160 161 159 165 164 167 197 172 162 160 158 159 155 154 155 159 149 139 127 127 130 140 151 157 166 160 161 169 162
165 160 137 142 144 130 149 165 177 193 165 168 165 163 162 162 164 167 163 150 148 141 145 148 157 163 163 166 174 170 164 175
162 159 161 139 140 129 137 155 176 152 153 162 168 166 171 172 173 175 163 158 158 151 161 155 165 163 165 177 180 184 187 191
162 162 158 151 137 136 129 128 126 147 160 173 176 176 183 180 181 178 161 174 169 167 169 167 177 171 159 177 202 212 208 210
169 156 161 164 168 155 155 159 140 133 169 190 171 185 187 188 197 173 172 195 199 179 162 187 181 164 140 186 239 231 223 219
174 170 158 169 174 182 152 155 140 133 175 201 194 189 179 204 201 195 196 198 197 188 185 177 184 176 162 122 237 251 240 228
177 181 175 179 187 176 130 128 134 143 205 213 224 202 187 206 217 207 203 202 210 203 197 195 200 197 195 167 185 229 198 219
181 179 180 185 187 187 186 191 198 204 203 194 201 209 211 208 225 219 212 209 214 213 204 201 185 204 218 237 251 177 198 255
183 185 189 187 187 191 194 196 208 217 222 227 231 216 220 220 225 226 217 212 218 213 204 210 205 197 195 173 212 230 215 215
188 191 193 194 191 194 200 205 207 222 231 235 241 234 222 223 225 225 227 225 221 220 215 209 214 217 215 212 202 208 218 202
187 194 202 200 199 200 201 204 207 218 223 229 235 239 243 230 217 221 223 230 227 215 206 215 214 222 227 229 231 234 203 197
191 195 198 200 204 208 208 210 211 220 221 223 222 226 225 221 225 225 228 230 220 203 207 214 214 221 228 227 232 232 203 194